^^

..:: Storico WU ::..




Lo storico viene creato da WUnderground con i dati che la stazione Meteomincio invia al loro server. L' aggiornamento viene fatto ogni 5 minuti circa, tuttavia possono esserci intervalli pił ampi a causa di errori, interruzioni di servizio o problemi nell' invio tramite FTP.


Storico stazione MeteoMincio
Giorno Sommario per Agosto 02, 2022 Unità:  Inglese    Metrico   Entrambi
Giorno Settimana Mese Anno
  Max: Min: Media:
Temperatura: 89.6 °F 71.6 °F 80.2 °F
Dew Point: 68 °F 60.8 °F 64.9 °F
Umidità: 73% 45% 61%
Velocità vento: 19.9mph 0mph 5.4mph
Raffica: 29.8mph - -
Direzione- - ESE
Pressione: 30 in 29.9 in -
Precipitazioni: 0 in    
 
 
Tabulato Dati per Agosto 02, 2022
Ora Temperatura Dew Point Pressione Direzione Velocità vento Raffica Umidità Intensità pioggia (oraria) Info solare Situazione
00:04 78.8 °F 64.4 °F 29.9 in NE 5.6 mph 8.1 mph 62% 0 in 0.00 W/m2 unknown
00:09 78.8 °F 66.2 °F 29.9 in NE 5 mph 8.1 mph 64% 0 in 0.00 W/m2 unknown
00:14 78.8 °F 66.2 °F 29.9 in ENE 4.3 mph 8.1 mph 65% 0 in 0.00 W/m2 unknown
00:19 78.8 °F 66.2 °F 29.9 in NE 5 mph 8.1 mph 66% 0 in 0.00 W/m2 unknown
00:24 77 °F 66.2 °F 29.9 in NE 3.7 mph 6.8 mph 66% 0 in 0.00 W/m2 unknown
00:29 77 °F 66.2 °F 29.9 in ENE 3.7 mph 5 mph 67% 0 in 0.00 W/m2 unknown
00:34 77 °F 66.2 °F 29.9 in ENE 3.7 mph 5 mph 68% 0 in 0.00 W/m2 unknown
00:39 77 °F 66.2 °F 29.9 in ENE 4.3 mph 5 mph 69% 0 in 0.00 W/m2 unknown
00:44 77 °F 66.2 °F 29.9 in ENE 3.7 mph 6.2 mph 70% 0 in 0.00 W/m2 unknown
00:49 75.2 °F 66.2 °F 29.9 in ENE 5 mph 6.8 mph 70% 0 in 0.00 W/m2 unknown
00:54 75.2 °F 66.2 °F 29.9 in ENE 5.6 mph 6.8 mph 70% 0 in 0.00 W/m2 unknown
00:59 77 °F 64.4 °F 29.9 in ENE 5.6 mph 8.1 mph 69% 0 in 0.00 W/m2 unknown
01:04 77 °F 64.4 °F 29.9 in ENE 5 mph 8.1 mph 69% 0 in 0.00 W/m2 unknown
01:09 75.2 °F 64.4 °F 29.9 in ENE 5 mph 6.8 mph 69% 0 in 0.00 W/m2 unknown
01:14 77 °F 64.4 °F 29.9 in ENE 7.5 mph 10.6 mph 69% 0 in 0.00 W/m2 unknown
01:19 77 °F 64.4 °F 29.9 in ENE 6.2 mph 9.9 mph 69% 0 in 0.00 W/m2 unknown
01:24 75.2 °F 64.4 °F 29.9 in ENE 6.2 mph 8.1 mph 69% 0 in 0.00 W/m2 unknown
01:29 75.2 °F 64.4 °F 29.9 in ENE 5 mph 8.1 mph 68% 0 in 0.00 W/m2 unknown
01:34 75.2 °F 64.4 °F 29.9 in ENE 5 mph 6.8 mph 68% 0 in 0.00 W/m2 unknown
01:39 75.2 °F 64.4 °F 29.9 in ENE 5 mph 6.8 mph 68% 0 in 0.00 W/m2 unknown
01:44 75.2 °F 64.4 °F 29.9 in ENE 4.3 mph 6.8 mph 68% 0 in 0.00 W/m2 unknown
01:49 77 °F 64.4 °F 29.9 in ENE 5.6 mph 8.1 mph 67% 0 in 0.00 W/m2 unknown
01:54 77 °F 64.4 °F 29.9 in ENE 5.6 mph 8.1 mph 67% 0 in 0.00 W/m2 unknown
01:59 77 °F 64.4 °F 29.9 in ENE 5 mph 6.8 mph 66% 0 in 0.00 W/m2 unknown
02:04 77 °F 64.4 °F 29.9 in ENE 5 mph 8.1 mph 66% 0 in 0.00 W/m2 unknown
02:09 77 °F 64.4 °F 29.9 in ENE 6.2 mph 8.1 mph 66% 0 in 0.00 W/m2 unknown
02:14 77 °F 64.4 °F 29.9 in ENE 6.2 mph 8.1 mph 66% 0 in 0.00 W/m2 unknown
02:19 77 °F 64.4 °F 29.9 in ENE 5.6 mph 9.3 mph 66% 0 in 0.00 W/m2 unknown
02:24 77 °F 64.4 °F 29.9 in ENE 5.6 mph 9.3 mph 66% 0 in 0.00 W/m2 unknown
02:29 77 °F 64.4 °F 29.9 in ENE 6.2 mph 8.7 mph 66% 0 in 0.00 W/m2 unknown
02:34 77 °F 64.4 °F 29.9 in ENE 6.2 mph 9.3 mph 67% 0 in 0.00 W/m2 unknown
02:39 77 °F 64.4 °F 29.9 in ENE 6.2 mph 9.9 mph 67% 0 in 0.00 W/m2 unknown
02:44 77 °F 64.4 °F 29.9 in ENE 7.5 mph 10.6 mph 67% 0 in 0.00 W/m2 unknown
02:49 77 °F 64.4 °F 29.9 in ENE 6.2 mph 9.9 mph 67% 0 in 0.00 W/m2 unknown
02:54 77 °F 64.4 °F 29.9 in ENE 6.2 mph 8.7 mph 67% 0 in 0.00 W/m2 unknown
02:59 77 °F 64.4 °F 29.9 in ENE 6.8 mph 11.2 mph 67% 0 in 0.00 W/m2 unknown
03:04 77 °F 64.4 °F 29.9 in ENE 8.1 mph 11.8 mph 67% 0 in 0.00 W/m2 unknown
03:09 77 °F 66.2 °F 29.9 in ENE 7.5 mph 11.8 mph 67% 0 in 0.00 W/m2 unknown
03:14 77 °F 66.2 °F 29.9 in ENE 6.8 mph 11.2 mph 67% 0 in 0.00 W/m2 unknown
03:19 77 °F 66.2 °F 29.9 in ENE 7.5 mph 11.8 mph 67% 0 in 0.00 W/m2 unknown
03:24 77 °F 66.2 °F 29.9 in ENE 7.5 mph 11.8 mph 67% 0 in 0.00 W/m2 unknown
03:29 77 °F 66.2 °F 29.9 in East 8.7 mph 11.8 mph 68% 0 in 0.00 W/m2 unknown
03:34 77 °F 66.2 °F 29.9 in ENE 8.1 mph 11.8 mph 68% 0 in 0.00 W/m2 unknown
03:39 77 °F 66.2 °F 29.9 in ENE 5.6 mph 9.9 mph 68% 0 in 0.00 W/m2 unknown
03:44 77 °F 66.2 °F 29.9 in ENE 5 mph 8.1 mph 69% 0 in 0.00 W/m2 unknown
03:49 77 °F 66.2 °F 29.9 in ENE 6.8 mph 9.3 mph 69% 0 in 0.00 W/m2 unknown
03:54 77 °F 66.2 °F 29.9 in ENE 8.1 mph 11.8 mph 69% 0 in 0.00 W/m2 unknown
03:59 77 °F 66.2 °F 29.9 in ENE 8.1 mph 11.8 mph 69% 0 in 0.00 W/m2 unknown
04:04 77 °F 66.2 °F 29.9 in ENE 8.7 mph 11.8 mph 69% 0 in 0.00 W/m2 unknown
04:09 77 °F 66.2 °F 29.9 in ENE 8.7 mph 14.9 mph 69% 0 in 0.00 W/m2 unknown
04:14 77 °F 66.2 °F 29.9 in ENE 9.3 mph 14.9 mph 69% 0 in 0.00 W/m2 unknown
04:19 77 °F 66.2 °F 29.9 in ENE 8.7 mph 14.9 mph 68% 0 in 0.00 W/m2 unknown
04:24 77 °F 66.2 °F 29.9 in ENE 8.7 mph 14.9 mph 68% 0 in 0.00 W/m2 unknown
04:29 77 °F 66.2 °F 29.9 in ENE 8.7 mph 14.9 mph 68% 0 in 0.00 W/m2 unknown
04:34 77 °F 66.2 °F 29.9 in ENE 8.7 mph 14.9 mph 68% 0 in 0.00 W/m2 unknown
04:39 77 °F 66.2 °F 29.9 in East 8.1 mph 14.3 mph 68% 0 in 0.00 W/m2 unknown
04:44 77 °F 66.2 °F 29.9 in ENE 9.3 mph 14.3 mph 68% 0 in 0.00 W/m2 unknown
04:49 77 °F 66.2 °F 29.9 in ENE 13 mph 17.4 mph 68% 0 in 0.00 W/m2 unknown
04:54 77 °F 66.2 °F 29.9 in ENE 13.7 mph 23 mph 68% 0 in 0.00 W/m2 unknown
04:59 77 °F 66.2 °F 29.9 in ENE 18 mph 24.2 mph 68% 0 in 0.00 W/m2 unknown
05:04 77 °F 66.2 °F 29.9 in East 17.4 mph 26.7 mph 67% 0 in 0.00 W/m2 unknown
05:09 77 °F 64.4 °F 29.9 in East 19.9 mph 26.1 mph 65% 0 in 0.00 W/m2 unknown
05:14 77 °F 64.4 °F 29.9 in East 19.3 mph 29.2 mph 65% 0 in 0.00 W/m2 unknown
05:19 77 °F 64.4 °F 29.9 in East 19.3 mph 29.2 mph 64% 0 in 0.00 W/m2 unknown
05:24 77 °F 62.6 °F 29.9 in East 16.8 mph 29.8 mph 63% 0 in 0.00 W/m2 unknown
05:29 77 °F 62.6 °F 29.9 in East 18 mph 29.8 mph 63% 0 in 0.00 W/m2 unknown
05:34 77 °F 62.6 °F 29.9 in East 16.2 mph 29.8 mph 62% 0 in 0.00 W/m2 unknown
05:39 77 °F 62.6 °F 29.9 in East 14.9 mph 24.2 mph 62% 0 in 0.00 W/m2 unknown
05:44 75.2 °F 62.6 °F 29.9 in ENE 14.3 mph 21.7 mph 62% 0 in 0.00 W/m2 unknown
05:49 75.2 °F 62.6 °F 29.9 in East 14.3 mph 21.7 mph 62% 0 in 0.00 W/m2 unknown
05:54 75.2 °F 62.6 °F 29.9 in East 15.5 mph 21.7 mph 62% 0 in 0.00 W/m2 unknown
05:59 75.2 °F 60.8 °F 29.9 in East 15.5 mph 21.7 mph 61% 0 in 0.00 W/m2 unknown
06:04 75.2 °F 60.8 °F 29.9 in East 11.8 mph 21.1 mph 61% 0 in 0.00 W/m2 unknown
06:09 75.2 °F 60.8 °F 29.9 in East 15.5 mph 21.1 mph 61% 0 in 0.00 W/m2 unknown
06:14 75.2 °F 60.8 °F 29.9 in ENE 14.3 mph 21.1 mph 61% 0 in 0.00 W/m2 unknown
06:19 75.2 °F 60.8 °F 30 in East 11.8 mph 16.8 mph 62% 0 in 5.00 W/m2 unknown
06:24 75.2 °F 60.8 °F 30 in East 13 mph 16.2 mph 62% 0 in 7.00 W/m2 unknown
06:29 75.2 °F 60.8 °F 30 in East 13 mph 17.4 mph 61% 0 in 11.00 W/m2 unknown
06:34 75.2 °F 60.8 °F 30 in ENE 13 mph 18.6 mph 62% 0 in 16.00 W/m2 unknown
06:39 75.2 °F 60.8 °F 30 in East 11.8 mph 18 mph 62% 0 in 19.00 W/m2 unknown
06:44 75.2 °F 60.8 °F 30 in ENE 11.8 mph 16.2 mph 62% 0 in 23.00 W/m2 unknown
06:49 75.2 °F 60.8 °F 30 in East 12.4 mph 17.4 mph 63% 0 in 25.00 W/m2 unknown
06:54 75.2 °F 60.8 °F 30 in ENE 11.8 mph 16.8 mph 63% 0 in 26.00 W/m2 unknown
06:59 75.2 °F 60.8 °F 30 in East 12.4 mph 16.2 mph 63% 0 in 26.00 W/m2 unknown
07:04 73.4 °F 60.8 °F 30 in East 14.9 mph 21.7 mph 64% 0 in 30.00 W/m2 unknown
07:09 73.4 °F 60.8 °F 30 in East 14.3 mph 21.7 mph 64% 0 in 30.00 W/m2 unknown
07:14 73.4 °F 60.8 °F 30 in East 9.3 mph 13 mph 65% 0 in 28.00 W/m2 unknown
07:19 73.4 °F 60.8 °F 30 in East 11.2 mph 16.2 mph 65% 0 in 28.00 W/m2 unknown
07:24 73.4 °F 60.8 °F 30 in ESE 9.9 mph 16.2 mph 65% 0 in 26.00 W/m2 unknown
07:29 73.4 °F 60.8 °F 30 in East 9.9 mph 14.9 mph 66% 0 in 26.00 W/m2 unknown
07:34 73.4 °F 60.8 °F 30 in ENE 9.3 mph 14.3 mph 66% 0 in 26.00 W/m2 unknown
07:39 73.4 °F 60.8 °F 30 in ENE 8.1 mph 14.3 mph 67% 0 in 23.00 W/m2 unknown
07:44 73.4 °F 60.8 °F 30 in ENE 6.8 mph 11.8 mph 67% 0 in 26.00 W/m2 unknown
07:49 73.4 °F 60.8 °F 30 in East 8.1 mph 11.8 mph 67% 0 in 30.00 W/m2 unknown
07:54 73.4 °F 60.8 °F 30 in ENE 8.1 mph 10.6 mph 68% 0 in 30.00 W/m2 unknown
07:59 73.4 °F 60.8 °F 30 in NE 7.5 mph 10.6 mph 68% 0 in 26.00 W/m2 unknown
08:04 73.4 °F 60.8 °F 30 in ENE 6.2 mph 9.9 mph 68% 0 in 26.00 W/m2 unknown
08:09 73.4 °F 60.8 °F 30 in ENE 5 mph 6.8 mph 68% 0 in 28.00 W/m2 unknown
08:14 73.4 °F 62.6 °F 30 in NE 3.1 mph 6.8 mph 71% 0 in 30.00 W/m2 unknown
08:19 71.6 °F 62.6 °F 30 in ENE 3.1 mph 3.7 mph 71% 0 in 30.00 W/m2 unknown
08:24 71.6 °F 62.6 °F 30 in ENE 3.1 mph 5 mph 71% 0 in 30.00 W/m2 unknown
08:29 71.6 °F 62.6 °F 30 in East 1.9 mph 5 mph 72% 0 in 33.00 W/m2 unknown
08:34 71.6 °F 62.6 °F 30 in ESE 3.1 mph 3.7 mph 72% 0 in 39.00 W/m2 unknown
08:39 71.6 °F 62.6 °F 30 in ESE 3.7 mph 3.7 mph 72% 0 in 49.00 W/m2 unknown
08:44 71.6 °F 62.6 °F 30 in ESE 3.7 mph 5 mph 72% 0 in 62.00 W/m2 unknown
08:49 71.6 °F 62.6 °F 30 in East 3.7 mph 5 mph 72% 0 in 81.00 W/m2 unknown
08:54 71.6 °F 62.6 °F 30 in ESE 2.5 mph 5 mph 72% 0 in 100.00 W/m2 unknown
08:59 73.4 °F 62.6 °F 30 in SE 2.5 mph 3.7 mph 72% 0 in 123.00 W/m2 unknown
09:04 73.4 °F 62.6 °F 30 in SE 2.5 mph 3.7 mph 72% 0 in 141.00 W/m2 unknown
09:09 73.4 °F 62.6 °F 30 in SSE 1.9 mph 3.7 mph 72% 0 in 153.00 W/m2 unknown
09:14 73.4 °F 64.4 °F 30 in SE 1.2 mph 3.1 mph 73% 0 in 172.00 W/m2 unknown
09:19 73.4 °F 64.4 °F 30 in SSE 2.5 mph 3.7 mph 70% 0 in 190.00 W/m2 unknown
09:24 75.2 °F 64.4 °F 30 in South 1.2 mph 3.7 mph 70% 0 in 197.00 W/m2 unknown
09:29 75.2 °F 64.4 °F 30 in NE 1.2 mph 2.5 mph 70% 0 in 246.00 W/m2 unknown
09:34 75.2 °F 64.4 °F 30 in SW 2.5 mph 3.7 mph 70% 0 in 279.00 W/m2 unknown
09:39 75.2 °F 64.4 °F 30 in SSW 2.5 mph 3.7 mph 69% 0 in 306.00 W/m2 unknown
09:44 75.2 °F 64.4 °F 30 in SE 2.5 mph 3.7 mph 69% 0 in 306.00 W/m2 unknown
09:49 75.2 °F 62.6 °F 30 in South 2.5 mph 3.7 mph 67% 0 in 244.00 W/m2 unknown
09:54 75.2 °F 62.6 °F 30 in SE 1.9 mph 3.7 mph 67% 0 in 239.00 W/m2 unknown
09:59 75.2 °F 64.4 °F 30 in SE 3.1 mph 3.7 mph 69% 0 in 239.00 W/m2 unknown
10:04 75.2 °F 64.4 °F 30 in ESE 5 mph 6.2 mph 68% 0 in 192.00 W/m2 unknown
10:09 75.2 °F 64.4 °F 30 in SE 3.7 mph 6.2 mph 69% 0 in 283.00 W/m2 unknown
10:14 75.2 °F 64.4 °F 30 in SE 2.5 mph 5 mph 68% 0 in 526.00 W/m2 unknown
10:19 77 °F 64.4 °F 30 in South 2.5 mph 3.7 mph 67% 0 in 585.00 W/m2 unknown
10:24 77 °F 64.4 °F 30 in SSW 5.6 mph 6.8 mph 66% 0 in 585.00 W/m2 unknown
10:29 77 °F 64.4 °F 30 in South 6.2 mph 6.8 mph 65% 0 in 445.00 W/m2 unknown
10:34 77 °F 64.4 °F 30 in SE 3.7 mph 6.8 mph 65% 0 in 724.00 W/m2 unknown
10:39 77 °F 64.4 °F 30 in SSE 5.6 mph 6.8 mph 64% 0 in 714.00 W/m2 unknown
10:44 77 °F 64.4 °F 30 in South 6.2 mph 9.3 mph 64% 0 in 722.00 W/m2 unknown
10:49 78.8 °F 66.2 °F 30 in SSE 6.2 mph 8.7 mph 65% 0 in 733.00 W/m2 unknown
10:54 78.8 °F 64.4 °F 30 in SW 5.6 mph 8.1 mph 64% 0 in 795.00 W/m2 unknown
10:59 78.8 °F 64.4 °F 30 in SW 5 mph 8.1 mph 63% 0 in 497.00 W/m2 unknown
11:04 78.8 °F 64.4 °F 30 in West 3.1 mph 6.8 mph 63% 0 in 438.00 W/m2 unknown
11:09 78.8 °F 66.2 °F 30 in WSW 3.7 mph 5 mph 63% 0 in 490.00 W/m2 unknown
11:14 78.8 °F 64.4 °F 30 in SW 3.1 mph 5 mph 62% 0 in 485.00 W/m2 unknown
11:19 78.8 °F 64.4 °F 30 in WSW 4.3 mph 6.2 mph 61% 0 in 434.00 W/m2 unknown
11:24 78.8 °F 64.4 °F 30 in SSW 6.2 mph 6.8 mph 61% 0 in 452.00 W/m2 unknown
11:29 78.8 °F 64.4 °F 30 in SSW 3.7 mph 6.8 mph 61% 0 in 503.00 W/m2 unknown
11:34 78.8 °F 64.4 °F 30 in SW 4.3 mph 6.8 mph 62% 0 in 540.00 W/m2 unknown
11:39 80.6 °F 64.4 °F 30 in SSW 4.3 mph 6.8 mph 60% 0 in 589.00 W/m2 unknown
11:44 80.6 °F 64.4 °F 30 in South 5 mph 6.8 mph 60% 0 in 591.00 W/m2 unknown
11:49 80.6 °F 64.4 °F 30 in SSW 4.3 mph 6.8 mph 59% 0 in 461.00 W/m2 unknown
11:54 80.6 °F 64.4 °F 30 in SSW 5.6 mph 6.8 mph 58% 0 in 404.00 W/m2 unknown
11:59 80.6 °F 64.4 °F 30 in SSW 5 mph 6.8 mph 58% 0 in 345.00 W/m2 unknown
12:04 80.6 °F 64.4 °F 30 in SSW 4.3 mph 6.2 mph 58% 0 in 294.00 W/m2 unknown
12:09 80.6 °F 64.4 °F 30 in SW 2.5 mph 6.2 mph 57% 0 in 272.00 W/m2 unknown
12:14 80.6 °F 64.4 °F 30 in SW 3.7 mph 5 mph 57% 0 in 258.00 W/m2 unknown
12:19 80.6 °F 64.4 °F 30 in SW 3.7 mph 5 mph 58% 0 in 239.00 W/m2 unknown
12:24 82.4 °F 66.2 °F 30 in West 3.7 mph 5 mph 60% 0 in 860.00 W/m2 unknown
12:29 82.4 °F 66.2 °F 30 in West 5.6 mph 8.1 mph 58% 0 in 865.00 W/m2 unknown
12:34 82.4 °F 66.2 °F 30 in West 6.2 mph 8.1 mph 57% 0 in 835.00 W/m2 unknown
12:39 82.4 °F 66.2 °F 30 in WSW 6.2 mph 6.8 mph 56% 0 in 823.00 W/m2 unknown
12:44 84.2 °F 66.2 °F 30 in West 5 mph 6.8 mph 56% 0 in 812.00 W/m2 unknown
12:49 84.2 °F 66.2 °F 30 in SW 4.3 mph 6.8 mph 57% 0 in 809.00 W/m2 unknown
12:54 84.2 °F 66.2 °F 30 in WNW 4.3 mph 6.2 mph 56% 0 in 814.00 W/m2 unknown
12:59 84.2 °F 66.2 °F 30 in NNW 3.7 mph 6.2 mph 57% 0 in 819.00 W/m2 unknown
13:04 84.2 °F 66.2 °F 30 in WNW 3.7 mph 6.2 mph 56% 0 in 824.00 W/m2 unknown
13:09 84.2 °F 68 °F 30 in West 5 mph 6.8 mph 57% 0 in 826.00 W/m2 unknown
13:14 84.2 °F 66.2 °F 30 in West 6.8 mph 8.1 mph 54% 0 in 828.00 W/m2 unknown
13:19 84.2 °F 66.2 °F 30 in West 6.2 mph 8.1 mph 55% 0 in 830.00 W/m2 unknown
13:24 84.2 °F 66.2 °F 30 in WNW 5 mph 8.1 mph 55% 0 in 833.00 W/m2 unknown
13:29 86 °F 68 °F 30 in NNW 4.3 mph 6.2 mph 55% 0 in 833.00 W/m2 unknown
13:34 86 °F 66.2 °F 30 in WNW 5.6 mph 8.1 mph 53% 0 in 837.00 W/m2 unknown
13:39 86 °F 66.2 °F 30 in WNW 6.2 mph 8.1 mph 54% 0 in 835.00 W/m2 unknown
13:44 86 °F 66.2 °F 30 in WSW 5 mph 8.1 mph 53% 0 in 833.00 W/m2 unknown
13:49 86 °F 66.2 °F 30 in West 4.3 mph 6.2 mph 51% 0 in 745.00 W/m2 unknown
13:54 86 °F 66.2 °F 30 in WNW 5 mph 6.2 mph 52% 0 in 693.00 W/m2 unknown
13:59 86 °F 66.2 °F 30 in WNW 3.7 mph 5 mph 52% 0 in 666.00 W/m2 unknown
14:04 86 °F 68 °F 30 in West 3.7 mph 8.1 mph 53% 0 in 369.00 W/m2 unknown
14:09 86 °F 68 °F 30 in West 5 mph 8.1 mph 53% 0 in 253.00 W/m2 unknown
14:14 86 °F 66.2 °F 30 in West 3.1 mph 6.2 mph 52% 0 in 657.00 W/m2 unknown
14:19 86 °F 66.2 °F 30 in West 3.1 mph 6.2 mph 51% 0 in 687.00 W/m2 unknown
14:24 86 °F 66.2 °F 30 in SW 3.1 mph 6.2 mph 51% 0 in 705.00 W/m2 unknown
14:29 86 °F 66.2 °F 30 in SSW 3.7 mph 6.2 mph 51% 0 in 791.00 W/m2 unknown
14:34 86 °F 66.2 °F 30 in SW 5 mph 6.8 mph 50% 0 in 807.00 W/m2 unknown
14:39 86 °F 66.2 °F 30 in SW 5 mph 6.8 mph 50% 0 in 810.00 W/m2 unknown
14:44 86 °F 66.2 °F 30 in West 3.1 mph 6.2 mph 51% 0 in 807.00 W/m2 unknown
14:49 87.8 °F 66.2 °F 30 in West 3.7 mph 6.2 mph 50% 0 in 803.00 W/m2 unknown
14:54 87.8 °F 66.2 °F 30 in WSW 3.1 mph 6.2 mph 49% 0 in 800.00 W/m2 unknown
14:59 87.8 °F 66.2 °F 30 in West 4.3 mph 6.2 mph 50% 0 in 796.00 W/m2 unknown
15:04 87.8 °F 64.4 °F 30 in North 3.1 mph 6.2 mph 48% 0 in 789.00 W/m2 unknown
15:09 87.8 °F 66.2 °F 30 in ESE 3.1 mph 6.2 mph 48% 0 in 786.00 W/m2 unknown
15:14 87.8 °F 66.2 °F 30 in East 3.7 mph 6.2 mph 49% 0 in 779.00 W/m2 unknown
15:19 87.8 °F 66.2 °F 30 in SE 5.6 mph 6.8 mph 51% 0 in 775.00 W/m2 unknown
15:24 87.8 °F 68 °F 30 in WSW 3.1 mph 6.8 mph 53% 0 in 770.00 W/m2 unknown
15:29 87.8 °F 68 °F 30 in East 5.6 mph 6.2 mph 51% 0 in 765.00 W/m2 unknown
15:33 87.8 °F 64.4 °F 30 in ENE 5 mph 6.2 mph 48% 0 in 758.00 W/m2 unknown
15:39 87.8 °F 68 °F 30 in ENE 6.2 mph 8.1 mph 52% 0 in 745.00 W/m2 unknown
15:44 87.8 °F 68 °F 30 in ESE 1.9 mph 8.1 mph 52% 0 in 742.00 W/m2 unknown
15:49 87.8 °F 66.2 °F 30 in SW 3.1 mph 5 mph 48% 0 in 733.00 W/m2 unknown
15:54 87.8 °F 66.2 °F 30 in ESE 5 mph 6.8 mph 48% 0 in 728.00 W/m2 unknown
15:59 87.8 °F 66.2 °F 30 in East 5 mph 6.8 mph 48% 0 in 694.00 W/m2 unknown
16:04 87.8 °F 68 °F 30 in NE 5.6 mph 6.8 mph 50% 0 in 626.00 W/m2 unknown
16:09 87.8 °F 68 °F 30 in NE 5.6 mph 6.8 mph 50% 0 in 561.00 W/m2 unknown
16:14 89.6 °F 66.2 °F 30 in ENE 6.8 mph 8.1 mph 49% 0 in 480.00 W/m2 unknown
16:19 89.6 °F 66.2 °F 30 in East 5.6 mph 8.1 mph 48% 0 in 283.00 W/m2 unknown
16:24 87.8 °F 66.2 °F 30 in East 4.3 mph 6.8 mph 49% 0 in 258.00 W/m2 unknown
16:29 89.6 °F 68 °F 30 in NE 5.6 mph 6.8 mph 50% 0 in 468.00 W/m2 unknown
16:34 89.6 °F 68 °F 30 in NE 6.2 mph 8.1 mph 50% 0 in 631.00 W/m2 unknown
16:39 89.6 °F 68 °F 30 in NE 5 mph 8.1 mph 49% 0 in 631.00 W/m2 unknown
16:44 89.6 °F 68 °F 30 in NE 5 mph 6.8 mph 49% 0 in 622.00 W/m2 unknown
16:49 87.8 °F 66.2 °F 29.9 in East 5 mph 6.8 mph 48% 0 in 612.00 W/m2 unknown
16:54 87.8 °F 66.2 °F 29.9 in East 5 mph 6.8 mph 47% 0 in 603.00 W/m2 unknown
16:59 87.8 °F 66.2 °F 29.9 in SSE 2.5 mph 6.8 mph 49% 0 in 587.00 W/m2 unknown
17:04 87.8 °F 66.2 °F 29.9 in East 3.7 mph 6.2 mph 48% 0 in 578.00 W/m2 unknown
17:09 87.8 °F 66.2 °F 29.9 in East 2.5 mph 6.2 mph 47% 0 in 564.00 W/m2 unknown
17:14 87.8 °F 64.4 °F 29.9 in SSW 3.7 mph 5.6 mph 45% 0 in 554.00 W/m2 unknown
17:19 87.8 °F 64.4 °F 29.9 in SSW 3.1 mph 6.2 mph 45% 0 in 540.00 W/m2 unknown
17:24 89.6 °F 64.4 °F 29.9 in South 3.1 mph 3.7 mph 46% 0 in 527.00 W/m2 unknown
17:29 87.8 °F 64.4 °F 29.9 in ENE 3.1 mph 6.2 mph 46% 0 in 515.00 W/m2 unknown
17:34 87.8 °F 64.4 °F 29.9 in East 4.3 mph 6.2 mph 45% 0 in 503.00 W/m2 unknown
17:39 87.8 °F 64.4 °F 29.9 in East 5 mph 6.2 mph 45% 0 in 490.00 W/m2 unknown
17:44 87.8 °F 64.4 °F 29.9 in SE 3.7 mph 6.2 mph 45% 0 in 482.00 W/m2 unknown
17:49 87.8 °F 64.4 °F 29.9 in East 3.1 mph 5 mph 45% 0 in 487.00 W/m2 unknown
17:54 87.8 °F 66.2 °F 29.9 in SE 3.1 mph 5 mph 47% 0 in 487.00 W/m2 unknown
17:59 87.8 °F 64.4 °F 29.9 in ESE 3.7 mph 5 mph 46% 0 in 468.00 W/m2 unknown
18:04 87.8 °F 64.4 °F 29.9 in SSE 3.7 mph 5 mph 46% 0 in 425.00 W/m2 unknown
18:09 87.8 °F 64.4 °F 29.9 in SSE 1.9 mph 5 mph 46% 0 in 403.00 W/m2 unknown
18:14 87.8 °F 64.4 °F 29.9 in ESE 2.5 mph 3.7 mph 47% 0 in 387.00 W/m2 unknown
18:19 87.8 °F 64.4 °F 29.9 in ESE 2.5 mph 3.7 mph 47% 0 in 378.00 W/m2 unknown
18:24 87.8 °F 66.2 °F 29.9 in East 4.3 mph 6.2 mph 48% 0 in 362.00 W/m2 unknown
18:29 87.8 °F 66.2 °F 29.9 in East 3.7 mph 6.8 mph 49% 0 in 343.00 W/m2 unknown
18:34 87.8 °F 66.2 °F 29.9 in East 5 mph 6.8 mph 50% 0 in 327.00 W/m2 unknown
18:39 87.8 °F 68 °F 29.9 in East 4.3 mph 6.8 mph 51% 0 in 309.00 W/m2 unknown
18:44 87.8 °F 66.2 °F 29.9 in ENE 5.6 mph 6.8 mph 50% 0 in 297.00 W/m2 unknown
18:49 87.8 °F 64.4 °F 29.9 in ENE 5 mph 6.8 mph 47% 0 in 281.00 W/m2 unknown
18:54 87.8 °F 66.2 °F 29.9 in ENE 5 mph 6.8 mph 48% 0 in 265.00 W/m2 unknown
18:59 87.8 °F 66.2 °F 29.9 in ENE 4.3 mph 6.8 mph 49% 0 in 250.00 W/m2 unknown
19:04 87.8 °F 66.2 °F 29.9 in ENE 5 mph 6.2 mph 50% 0 in 236.00 W/m2 unknown
19:09 87.8 °F 66.2 °F 29.9 in East 5 mph 6.2 mph 51% 0 in 218.00 W/m2 unknown
19:14 87.8 °F 66.2 °F 29.9 in ENE 3.1 mph 5 mph 51% 0 in 199.00 W/m2 unknown
19:19 87.8 °F 68 °F 29.9 in ENE 3.1 mph 5 mph 53% 0 in 181.00 W/m2 unknown
19:24 86 °F 68 °F 29.9 in ENE 2.5 mph 5 mph 53% 0 in 179.00 W/m2 unknown
19:29 86 °F 68 °F 29.9 in ENE 3.7 mph 5 mph 53% 0 in 176.00 W/m2 unknown
19:34 86 °F 68 °F 29.9 in East 3.1 mph 5 mph 55% 0 in 148.00 W/m2 unknown
19:39 86 °F 68 °F 29.9 in ENE 3.1 mph 5 mph 55% 0 in 134.00 W/m2 unknown
19:44 86 °F 68 °F 29.9 in ENE 3.7 mph 5 mph 54% 0 in 98.00 W/m2 unknown
19:49 86 °F 68 °F 29.9 in ENE 3.1 mph 5 mph 54% 0 in 93.00 W/m2 unknown
19:54 86 °F 66.2 °F 29.9 in ENE 3.7 mph 3.7 mph 55% 0 in 25.00 W/m2 unknown
19:59 84.2 °F 66.2 °F 29.9 in ENE 3.1 mph 3.7 mph 55% 0 in 23.00 W/m2 unknown
20:04 84.2 °F 66.2 °F 29.9 in ENE 3.7 mph 4.3 mph 55% 0 in 19.00 W/m2 unknown
20:09 84.2 °F 66.2 °F 29.9 in ENE 3.1 mph 5 mph 54% 0 in 14.00 W/m2 unknown
20:14 84.2 °F 66.2 °F 29.9 in ENE 3.7 mph 5 mph 54% 0 in 12.00 W/m2 unknown
20:19 84.2 °F 66.2 °F 29.9 in ENE 3.7 mph 5 mph 55% 0 in 12.00 W/m2 unknown
20:24 84.2 °F 66.2 °F 29.9 in NE 3.1 mph 3.7 mph 55% 0 in 11.00 W/m2 unknown
20:29 84.2 °F 64.4 °F 29.9 in NE 2.5 mph 3.7 mph 54% 0 in 9.00 W/m2 unknown
20:34 84.2 °F 64.4 °F 29.9 in ENE 3.1 mph 3.7 mph 55% 0 in 7.00 W/m2 unknown
20:39 82.4 °F 66.2 °F 29.9 in ENE 3.7 mph 3.7 mph 56% 0 in 5.00 W/m2 unknown
20:44 82.4 °F 66.2 °F 29.9 in ENE 3.1 mph 3.7 mph 58% 0 in 0.00 W/m2 unknown
20:49 82.4 °F 66.2 °F 29.9 in ENE 2.5 mph 3.7 mph 59% 0 in 0.00 W/m2 unknown
20:54 82.4 °F 66.2 °F 29.9 in ENE 2.5 mph 3.7 mph 60% 0 in 0.00 W/m2 unknown
20:59 80.6 °F 66.2 °F 29.9 in ENE 2.5 mph 3.7 mph 60% 0 in 0.00 W/m2 unknown
21:04 80.6 °F 66.2 °F 29.9 in ENE 2.5 mph 3.7 mph 60% 0 in 0.00 W/m2 unknown
21:09 80.6 °F 66.2 °F 29.9 in ENE 1.9 mph 3.7 mph 59% 0 in 0.00 W/m2 unknown
21:14 80.6 °F 66.2 °F 30 in ENE 2.5 mph 3.7 mph 59% 0 in 0.00 W/m2 unknown
21:19 80.6 °F 66.2 °F 30 in ENE 2.5 mph 3.7 mph 59% 0 in 0.00 W/m2 unknown
21:24 80.6 °F 66.2 °F 30 in ENE 2.5 mph 3.7 mph 61% 0 in 0.00 W/m2 unknown
21:29 80.6 °F 66.2 °F 30 in ENE 1.9 mph 3.7 mph 61% 0 in 0.00 W/m2 unknown
21:34 80.6 °F 64.4 °F 30 in ENE 2.5 mph 3.7 mph 61% 0 in 0.00 W/m2 unknown
21:39 80.6 °F 64.4 °F 30 in ENE 2.5 mph 3.7 mph 61% 0 in 0.00 W/m2 unknown
21:44 80.6 °F 64.4 °F 30 in ENE 2.5 mph 3.7 mph 61% 0 in 0.00 W/m2 unknown
21:49 78.8 °F 64.4 °F 30 in ENE 2.5 mph 3.7 mph 61% 0 in 0.00 W/m2 unknown
21:54 78.8 °F 64.4 °F 30 in ENE 1.9 mph 3.1 mph 60% 0 in 0.00 W/m2 unknown
21:59 78.8 °F 64.4 °F 30 in ENE 1.2 mph 2.5 mph 61% 0 in 0.00 W/m2 unknown
22:04 78.8 °F 64.4 °F 30 in ENE 1.9 mph 3.7 mph 61% 0 in 0.00 W/m2 unknown
22:09 78.8 °F 64.4 °F 30 in ENE 1.9 mph 3.7 mph 62% 0 in 0.00 W/m2 unknown
22:14 78.8 °F 64.4 °F 30 in ENE 2.5 mph 3.7 mph 62% 0 in 0.00 W/m2 unknown
22:19 78.8 °F 64.4 °F 30 in ENE 2.5 mph 3.7 mph 62% 0 in 0.00 W/m2 unknown
22:24 78.8 °F 64.4 °F 30 in ENE 1.9 mph 3.7 mph 62% 0 in 0.00 W/m2 unknown
22:29 78.8 °F 64.4 °F 30 in ENE 1.2 mph 3.1 mph 62% 0 in 0.00 W/m2 unknown
22:34 78.8 °F 64.4 °F 30 in ENE 1.2 mph 2.5 mph 62% 0 in 0.00 W/m2 unknown
22:39 78.8 °F 64.4 °F 30 in ENE 1.2 mph 2.5 mph 63% 0 in 0.00 W/m2 unknown
22:44 78.8 °F 64.4 °F 30 in Calm   1.9 mph 64% 0 in 0.00 W/m2 unknown
22:49 78.8 °F 64.4 °F 30 in Calm     65% 0 in 0.00 W/m2 unknown
22:54 77 °F 64.4 °F 30 in Calm     66% 0 in 0.00 W/m2 unknown
22:59 77 °F 64.4 °F 30 in Calm     66% 0 in 0.00 W/m2 unknown
23:04 77 °F 64.4 °F 30 in Calm     66% 0 in 0.00 W/m2 unknown
23:09 77 °F 64.4 °F 30 in ENE 2.5 mph 3.7 mph 66% 0 in 0.00 W/m2 unknown
23:14 77 °F 64.4 °F 30 in NE 1.9 mph 3.7 mph 65% 0 in 0.00 W/m2 unknown
23:19 77 °F 64.4 °F 30 in NE 1.9 mph 3.1 mph 66% 0 in 0.00 W/m2 unknown
23:24 77 °F 64.4 °F 30 in NE 2.5 mph 3.7 mph 66% 0 in 0.00 W/m2 unknown
23:29 77 °F 64.4 °F 30 in NE 1.9 mph 3.1 mph 67% 0 in 0.00 W/m2 unknown
23:34 77 °F 64.4 °F 30 in NE 1.2 mph 2.5 mph 67% 0 in 0.00 W/m2 unknown
23:39 77 °F 64.4 °F 30 in NE 1.2 mph 2.5 mph 67% 0 in 0.00 W/m2 unknown
23:44 77 °F 64.4 °F 30 in NE 1.2 mph 2.5 mph 67% 0 in 0.00 W/m2 unknown
23:49 77 °F 66.2 °F 30 in NE 0.6 mph 1.9 mph 68% 0 in 0.00 W/m2 unknown
23:54 77 °F 66.2 °F 30 in Calm   1.2 mph 71% 0 in 0.00 W/m2 unknown
23:59 77 °F 66.2 °F 30 in NNE 1.9 mph 2.5 mph 72% 0 in 0.00 W/m2 unknown
Stazione Meteorologica MeteoMincio Rivalta s/M (MN)
Con i complimenti di Weather Underground - 4 mb



METEO PILLOLE
Il luogo più piovoso della Terra
Lloro - Colombia
Ogni anno cadono in media 13300 millimetri di pioggia.
Share

Non seguire questo link o sarai bannato dal sito!